Regional Weather Roundup
Issued by NWS

Home | Current Version | Previous Version | Text Only | Print | Product List | Glossary Off
Versions: 1 2 3 4 5 6 7 8 9 10 11 12 13 14 15 16 17 18 19 20 21 22 23 24 25 26 27 28 29 30 31 32 33 34 35 36 37 38 39 40 41 42 43 44 45 46 47 48

297
ASUS45 KBOU 022107
RWRCO

WEATHER ROUNDUP FOR COLORADO
NATIONAL WEATHER SERVICE DENVER/BOULDER CO
300 PM MDT MON MAY 02 2016

NOTE: "FAIR" INDICATES FEW OR NO CLOUDS BELOW 12000 FEET WITH NO
SIGNIFICANT WEATHER AND/OR OBSTRUCTIONS TO VISIBILITY.

COZ001>005-013-030-031-022200-
...NORTHWEST COLORADO...

CITY           SKY/WX    TMP DP  RH WIND       PRES   REMARKS
CRAIG          FAIR      58  26  29 NW10      30.21F
HAYDEN         FAIR      55  23  28 W9        30.21F
MEEKER         PTSUNNY   58  25  28 VRB6      30.20F
MOUNT WERNER   NOT AVBL
STEAMBOAT SPGS CLOUDY    53  27  36 W12       30.20F
WALDEN         FAIR      50  23  34 N10G17    30.23F
$$

COZ006>008-011-022200-
...WEST CENTRAL VALLEYS...

CITY           SKY/WX    TMP DP  RH WIND       PRES   REMARKS
GRAND JUNCTION FAIR      62  34  35 NW8       30.16F
MONTROSE       FAIR      61  27  27 MISG      30.19F
EAGLE          MOSUNNY   59  21  23 SE6       30.17
RIFLE          FAIR      62  29  28 MISG      30.15F
DELTA          NOT AVBL
NUCLA          NOT AVBL
$$

COZ017>023-064>068-022200-
...SOUTHWEST COLORADO...

CITY           SKY/WX    TMP DP  RH WIND       PRES   REMARKS
DURANGO        FAIR      54  33  45 VRB5      30.21F
CORTEZ         FAIR      58  36  43 S14       30.20F
PAGOSA SPRINGS FAIR      51  32  48 CALM      30.22F
TELLURIDE      PTSUNNY   48  30  49 NW5G17    30.27F
WOLF CREEK PAS PTSUNNY   28  28 100 S12       30.36S WCI  18
$$

COZ009-010-012-014-032>034-037-058>063-022200-
...CENTRAL COLORADO...

CITY           SKY/WX    TMP DP  RH WIND       PRES   REMARKS
ASPEN          FAIR      55  22  27 NW7G16    30.19F
BUENA VISTA    FAIR      54  24  31 NE6       30.18F
COPPER MTN     NOT AVBL
BERTHOUD PASS  FAIR      21  12  68 N22G30    30.32S WCI   5
COTTONWOOD PAS FAIR      46  23  39 CALM      30.25F
GUNNISON       FAIR      52  27  37 W9G16     30.22F
KREMMLING      FAIR      55  19  24 N16G22    30.20F
LEADVILLE      FAIR      41  16  36 N9        30.23F
MONARCH PASS   PTSUNNY   28  27  93 MISG      30.43S
SALIDA         FAIR      58  26  29 NE7       30.25F
SUNLIGHT       FAIR      37  28  70 SW3       30.35F
WILKERSON PASS FAIR      37  23  56 CALM      30.32S
$$

COZ069>075-022200-
...SAN LUIS VALLEY/SANGRE DE CRISTO MOUNTAINS...

CITY           SKY/WX    TMP DP  RH WIND       PRES   REMARKS
ALAMOSA        PTSUNNY   54  27  35 VRB6      30.20F
LA VETA PASS   PTSUNNY   41  32  70 CALM      30.28S
SAGUACHE       PTSUNNY   52  28  40 S6        30.20F
$$

COZ035-036-038>040-022200-
...NORTHERN COLORADO FRONT RANGE...

CITY           SKY/WX    TMP DP  RH WIND       PRES   REMARKS
DENVER INTL AP FAIR      56  23  27 VRB5G18   30.15F
DMNS CITY PARK   N/A     58  20  23 NE7G16    30.14F
AURORA         FAIR      55  25  31 VRB3      30.16F
FRONT RANGE AP MOSUNNY   54  30  40 CALM      30.16F
ERIE MUNI ARPT FAIR      58  25  28 CALM      30.15F
BOULDER MUN AP FAIR      57  28  33 E3        30.14F
CENTENNIAL     FAIR      53  24  32 S5        30.16F
BROOMFIELD     MOSUNNY   57  25  28 NW3       30.16F
FORT COLLINS   FAIR      57  28  33 W7        30.15F
LONGMONT       FAIR      61  27  27 SE6       30.16F
$$

COZ041-046-047-076>085-087-088-022200-
...PIKES PEAK/PALMER DIVIDE AND SOUTHERN FOOTHILLS...

CITY           SKY/WX    TMP DP  RH WIND       PRES   REMARKS
COLO. SPRINGS  FAIR      56  18  22 NW5       30.18F
A. F. ACADEMY  FAIR      54  12  19 NE5       30.17F
SCHRIEVER AFB  NOT AVBL
ELLICOTT       FAIR     N/A N/A N/A CALM      30.17F
FALCON         FAIR      53   6  14 N10       30.20F
FORT CARSON    FAIR      55  28  35 SE8       30.16F
LIMON          FAIR      47  23  38 W6        30.18F
MONUMENT HILL  FAIR      45  12  26 S3        30.21F
TRINIDAD       FAIR      57  36  45 VRB3      30.17F
$$

COZ042>045-048>051-090-091-022200-
...NORTHEAST COLORADO...

CITY           SKY/WX    TMP DP  RH WIND       PRES   REMARKS
GREELEY ARPT   FAIR      59  28  31 W3        30.15F
AKRON          FAIR      56  26  31 NW13      30.14F
BURLINGTON     FAIR      59  27  29 NW9       30.14F
WRAY           NOT AVBL
STERLING       FAIR      61  30  31 W6        30.10F
HOLYOKE        NOT AVBL
FORT MORGAN    FAIR      58  19  21 SW5       30.14F
$$

COZ086-089-092>099-022200-
...SOUTHEAST COLORADO...

CITY           SKY/WX    TMP DP  RH WIND       PRES   REMARKS
PUEBLO         FAIR      61  29  29 NE6       30.15F
LA JUNTA       FAIR      59  32  36 VRB5      30.16F
LAMAR          FAIR      61  29  29 CALM      30.13F
SPRINGFIELD      N/A     58  34  40 NW10G23   30.16F
$$




USA.gov is the U.S. government's official web portal to all federal, state and local government web resources and services.